Theta_e
273 272 270 273 272 271 270 272 265 272 265 273 277 273 276 270 263 269 267 269 271 272 274 274 274 275 276 277 278 279 281 281 282 283 285 286 286 287 287 287 287 287 287 287
264 273 274 270 273 272 271 272 270 273 272 279 279 264 266 268 262 268 263 265 268 268 272 272 273 274 275 277 277 279 279 280 281 282 283 284 285 285 285 285 285 286 285 285
261 269 267 266 267 267 267 265 267 264 270 262 266 265 265 266 264 267 263 263 267 265 269 271 272 274 275 276 277 278 278 279 281 281 282 283 283 283 283 284 284 284 284 284
260 261 258 274 276 273 271 272 270 268 270 269 269 266 267 263 267 268 262 264 266 266 265 269 268 273 276 276 276 277 278 279 281 281 281 282 282 282 282 283 283 283 283 284
260 253 266 274 274 274 273 273 276 275 276 271 270 275 272 272 272 267 267 268 266 266 266 269 269 272 276 275 276 276 277 279 281 282 282 282 282 282 282 282 282 282 283 283
257 256 257 273 276 277 276 268 276 278 278 277 275 269 270 277 277 275 275 274 273 274 273 271 272 274 275 273 274 275 276 279 281 282 282 281 281 282 282 282 282 283 283 283
268 260 264 274 277 277 265 272 278 279 278 276 274 273 275 277 275 275 274 274 273 273 272 270 271 273 273 273 272 274 277 280 280 281 282 282 282 282 281 281 281 281 281 282
263 260 262 277 276 273 277 277 277 277 277 277 276 275 275 274 274 274 273 273 273 272 271 270 271 271 271 270 271 273 276 278 279 280 281 281 281 281 281 280 279 279 279 279
270 269 277 278 278 280 279 279 277 277 277 277 276 274 274 273 273 273 273 273 272 271 271 269 269 269 269 268 270 272 274 275 277 278 279 279 279 279 279 279 278 277 276 275
270 276 277 279 280 280 280 280 279 279 278 276 275 273 273 270 271 271 269 268 266 266 267 267 266 268 266 266 268 270 272 276 276 276 276 276 277 277 277 276 275 275 275 273
270 275 278 278 279 280 280 280 276 274 276 276 275 274 274 273 271 271 269 265 264 265 265 263 263 262 261 265 266 269 271 275 277 275 275 276 276 276 276 277 275 272 271 272
276 283 281 282 283 275 277 274 276 275 271 270 275 275 274 273 273 271 269 267 265 265 264 263 262 262 262 263 265 267 269 270 275 277 276 274 273 275 279 279 279 279 279 275
281 285 284 283 277 274 276 276 273 274 276 274 269 274 273 272 269 269 267 267 267 266 265 262 261 261 259 260 262 264 267 269 271 274 275 275 273 271 268 274 277 278 278 278
283 282 280 281 279 276 275 273 269 268 270 271 273 266 267 268 264 269 269 269 267 264 262 261 259 259 259 257 258 259 260 263 264 264 266 268 272 273 271 266 263 262 272 274
284 282 283 277 270 272 268 267 268 270 270 268 268 273 269 269 269 271 268 266 265 260 258 258 258 261 258 257 259 258 261 261 262 262 262 264 265 266 265 261 259 257 259 265
276 274 269 271 276 271 268 264 270 272 269 269 270 270 271 271 269 266 264 264 266 266 264 261 261 260 259 258 259 257 258 261 261 261 261 262 262 263 261 260 259 256 256 256
273 277 263 266 270 268 269 271 273 274 272 270 272 268 268 267 260 262 264 263 261 262 265 263 264 259 258 258 260 259 258 258 260 259 259 259 259 260 259 259 257 255 256 257
279 281 274 272 272 272 269 269 270 269 270 271 267 266 267 267 272 269 267 259 256 258 258 262 260 259 257 256 257 258 259 257 257 257 258 259 258 258 259 259 258 258 256 258
269 272 269 272 271 271 268 268 269 270 266 267 267 269 270 270 266 263 263 263 263 263 268 262 265 259 257 256 257 258 260 259 257 256 256 257 256 255 257 258 257 257 255 254
266 262 263 264 263 266 269 263 264 266 267 268 266 265 267 267 264 265 265 267 270 269 262 264 265 259 258 259 264 259 259 259 259 256 256 255 256 255 255 256 256 256 254 253
265 260 260 259 262 262 265 263 265 266 265 268 269 270 272 267 265 264 262 265 269 263 259 262 264 260 260 261 261 259 259 258 259 258 257 257 256 254 255 253 254 256 252 252
261 258 259 256 255 260 260 261 263 260 265 267 265 264 266 265 265 265 264 268 259 263 261 261 261 261 261 262 261 259 258 258 258 256 255 255 256 257 256 255 255 254 253 253
257 257 256 253 253 257 255 254 258 261 264 266 268 267 269 271 268 266 267 265 258 260 261 260 260 261 261 260 260 259 258 258 258 258 258 258 258 257 256 256 255 256 255 253
254 254 253 251 248 251 257 258 254 257 259 259 261 262 264 263 258 254 255 260 260 263 260 261 265 266 261 260 259 258 257 257 257 257 257 259 257 257 257 256 257 255 252 256
252 252 249 250 252 253 253 253 252 252 254 253 253 253 254 255 264 258 257 259 263 259 260 264 267 264 259 258 257 257 257 257 257 258 259 259 258 258 256 256 257 257 256 256
253 253 252 252 253 252 253 253 257 253 258 255 253 251 254 256 259 258 258 258 258 259 261 261 259 257 256 256 256 257 258 259 260 259 259 258 258 257 258 258 258 258 256 253
252 253 252 254 252 251 251 253 256 256 254 257 253 249 253 256 257 258 258 258 258 257 257 256 256 256 256 257 257 258 259 260 260 259 258 259 259 259 259 257 254 252 251 250
Wind_Speed
7 10 7 15 16 10 12 15 8 20 8 20 18 10 12 7 5 7 7 6 7 10 11 10 12 13 12 11 12 12 10 8 7 7 6 5 4 4 5 5 6 4 3 5
7 8 9 9 18 16 19 15 16 22 26 25 23 2 4 7 6 6 5 7 7 8 10 11 12 12 12 12 12 11 10 9 7 7 6 6 6 7 8 7 8 7 9 9
7 3 7 9 11 7 6 5 8 8 18 2 5 5 6 6 7 6 5 6 8 5 8 8 10 11 11 11 11 11 11 10 9 7 8 8 8 9 9 10 10 10 11 12
6 6 2 8 4 7 11 8 16 8 10 9 7 6 7 6 6 6 4 5 7 4 5 7 5 10 11 9 10 10 12 12 10 8 9 9 11 11 11 11 11 11 12 13
1 3 10 11 3 7 8 9 13 15 16 5 3 3 7 4 6 5 5 4 4 3 1 6 5 7 8 9 10 12 12 12 11 10 10 10 11 11 11 12 12 12 12 17
3 2 7 6 1 1 2 7 7 10 9 6 4 2 6 5 5 5 4 2 2 5 2 4 8 8 7 9 10 11 12 11 11 11 12 12 11 11 10 11 12 11 15 14
8 5 13 15 7 1 7 9 5 6 6 8 6 6 4 6 5 5 4 3 2 3 4 5 6 7 7 8 9 9 10 9 10 10 10 9 10 9 9 10 12 13 13 12
4 3 13 10 5 10 7 3 3 4 6 8 6 5 6 7 7 7 6 4 2 2 3 4 5 5 4 5 8 7 7 7 8 9 8 7 9 8 9 9 9 10 11 10
14 15 6 9 7 10 8 6 4 4 5 7 8 8 8 8 8 7 7 5 2 2 2 3 4 4 3 5 6 6 6 6 5 7 8 8 9 8 7 7 7 8 8 8
2 13 23 17 15 8 7 10 7 6 7 8 8 8 8 5 6 6 5 4 4 3 0 1 2 3 1 4 5 4 5 5 5 8 9 9 7 7 6 6 7 6 6 7
9 21 14 19 13 14 13 12 7 6 9 11 8 6 8 7 7 6 6 4 4 5 4 4 1 1 2 3 4 2 3 3 6 6 7 7 8 6 7 8 7 5 5 4
13 24 10 12 8 3 9 10 13 9 6 5 10 11 8 8 7 7 7 5 4 5 4 4 4 3 1 2 2 2 3 2 2 5 5 4 5 6 17 16 17 17 16 8
24 23 16 13 7 4 8 10 9 11 12 9 6 9 7 6 6 6 6 7 7 8 6 5 4 3 3 0 1 3 4 3 2 3 3 4 3 4 4 8 16 15 16 16
21 16 18 16 15 9 10 7 3 4 6 8 8 4 5 6 4 8 9 9 7 6 6 6 5 5 4 2 3 3 3 3 3 2 2 2 2 4 3 2 2 3 9 11
21 15 22 7 2 7 4 5 6 7 7 6 5 9 9 9 9 11 5 6 6 5 4 5 5 6 6 5 4 4 3 2 2 2 2 3 3 4 4 4 3 2 2 5
5 8 5 9 15 8 7 4 8 9 7 5 8 10 11 9 7 5 7 8 8 8 8 8 7 5 7 6 6 3 3 5 3 2 2 3 3 4 3 3 4 3 3 3
4 16 2 7 9 7 12 10 13 11 9 9 12 6 8 7 4 5 7 7 5 5 7 8 9 6 7 6 6 4 3 3 4 3 3 2 3 3 3 4 3 3 1 2
14 17 7 8 7 8 8 11 9 8 9 10 8 9 9 11 14 11 9 6 3 4 6 7 5 6 6 6 5 3 3 3 2 3 2 3 3 3 3 4 4 4 1 1
6 9 5 9 8 8 6 8 11 10 7 8 9 13 13 10 6 6 8 8 7 7 9 8 9 8 7 6 6 3 4 4 3 2 2 4 3 3 3 4 4 3 3 3
5 3 4 5 4 7 8 5 5 8 8 9 7 8 9 8 8 9 9 13 14 7 6 9 11 9 8 9 10 4 5 5 5 4 3 3 3 3 3 4 4 4 4 3
7 4 5 4 6 6 7 4 7 8 8 9 12 13 14 8 8 8 6 6 8 8 6 9 10 7 7 8 7 5 5 5 5 5 5 4 4 3 3 3 4 4 3 3
3 4 5 5 4 7 6 6 6 4 8 9 7 7 8 8 9 9 5 7 2 10 7 6 6 10 8 12 7 6 5 5 5 4 4 4 4 4 4 3 3 3 3 3
3 4 4 4 5 6 5 4 5 6 8 8 10 10 9 7 7 8 9 7 4 6 6 5 8 12 13 7 7 6 6 6 5 5 5 4 4 4 3 4 4 4 3 3
3 4 4 4 4 1 5 5 4 5 5 4 5 5 7 5 2 2 2 6 10 10 6 8 10 14 11 6 6 5 5 5 5 4 3 4 3 4 3 3 3 2 2 3
4 4 3 4 3 4 4 3 3 2 4 4 3 2 3 1 4 5 4 5 11 8 7 10 13 13 6 5 5 5 4 4 4 4 4 4 4 3 2 3 3 3 3 3
2 3 3 5 4 3 3 3 3 2 4 4 4 3 4 4 6 7 6 8 7 8 7 6 5 5 5 5 5 5 4 4 4 4 4 3 3 3 3 3 3 3 3 3
2 2 3 3 2 3 0 3 4 3 3 5 5 2 3 5 6 7 8 7 6 6 6 5 5 5 5 5 5 4 4 3 4 4 3 3 3 3 3 3 2 3 3 3
Wind_Direction
252 252 218 254 253 206 203 216 192 268 222 267 281 291 289 266 312 317 338 331 322 327 331 339 332 335 338 341 336 336 340 344 347 342 349 360 18 38 44 55 64 45 52 42
284 255 245 256 252 224 223 242 254 258 276 274 280 304 283 265 282 293 295 299 317 309 327 341 336 332 334 345 342 343 350 354 353 4 18 30 45 56 61 59 58 57 56 52
265 348 314 289 237 172 187 210 159 173 231 295 284 263 251 265 234 264 272 278 313 302 317 315 331 328 334 344 342 356 5 1 8 15 33 41 54 59 65 64 64 62 62 62
264 1 287 246 189 177 194 214 212 268 264 229 231 241 243 215 204 253 245 267 296 294 309 312 315 330 331 349 359 7 13 13 14 24 42 51 62 61 62 64 63 63 62 63
206 216 299 287 178 160 174 279 204 219 251 259 251 272 296 207 199 199 188 229 245 262 271 309 328 328 339 355 5 13 8 15 21 27 44 53 58 62 63 69 67 66 63 63
79 172 241 253 232 171 121 290 202 184 231 199 154 36 260 175 182 193 175 153 9 334 37 354 345 343 7 7 12 8 356 5 17 30 42 46 49 53 62 69 70 68 66 60
214 247 279 252 233 194 86 243 168 182 188 157 192 202 184 152 169 172 174 146 92 17 29 11 346 342 24 11 14 341 347 9 23 26 37 44 53 51 53 62 64 60 65 56
135 206 274 173 76 174 221 256 222 201 190 196 201 163 175 192 179 178 182 173 121 73 50 31 6 353 12 28 333 336 346 16 28 31 36 40 53 49 49 54 64 63 62 59
187 214 240 210 221 231 164 199 220 207 212 204 196 198 190 197 195 190 185 171 148 117 87 56 26 21 27 333 336 340 360 14 28 51 45 39 46 53 52 51 66 66 62 55
79 250 242 244 252 255 226 228 213 212 202 182 204 191 204 188 200 184 174 186 166 134 122 114 64 59 352 315 327 352 15 17 38 55 53 50 50 52 56 52 49 51 61 50
261 276 276 259 237 244 249 236 225 221 196 205 191 209 195 195 198 194 181 176 167 171 183 228 203 134 317 328 332 33 49 45 74 45 46 65 70 66 61 74 84 86 74 65
246 259 235 259 248 216 215 226 229 197 223 226 188 204 189 207 189 176 182 167 170 189 184 200 180 187 236 309 312 144 92 42 66 120 121 99 72 61 63 68 67 69 79 81
247 261 259 262 245 209 202 228 221 198 209 196 219 189 184 195 185 181 171 174 183 196 190 171 177 180 211 212 75 94 109 84 52 61 108 131 128 119 112 59 57 61 57 57
240 258 270 247 256 221 210 222 177 205 204 196 191 165 157 174 131 178 195 196 168 172 173 173 172 204 203 162 108 99 97 91 106 104 94 63 73 110 119 133 88 14 40 59
248 219 244 268 323 224 189 148 177 201 206 211 195 190 171 171 184 204 175 164 144 145 168 170 185 220 180 166 145 149 147 137 108 98 85 86 74 73 87 92 107 135 7 53
235 248 270 223 248 232 194 192 202 216 198 207 198 201 191 181 188 166 162 158 149 198 196 197 207 207 170 168 163 153 150 149 132 133 99 85 86 98 84 77 68 55 39 354
257 273 229 258 230 219 214 210 208 208 203 197 211 166 160 169 132 172 194 190 175 193 198 186 212 172 171 173 166 159 155 150 137 105 109 119 122 124 126 116 116 112 162 220
228 253 220 205 206 228 231 217 209 196 201 201 159 158 165 179 198 191 184 158 166 267 230 215 182 166 162 157 150 153 144 140 119 137 123 102 121 128 133 135 145 147 196 350
212 249 243 231 220 217 213 208 209 210 177 168 161 189 193 196 178 160 143 167 186 209 237 191 186 158 157 162 157 154 151 150 138 130 134 136 116 135 138 148 155 155 154 147
275 266 276 255 252 200 223 223 189 198 186 173 167 156 184 194 169 163 167 196 202 201 156 166 167 162 160 176 172 166 156 159 159 156 149 153 159 165 161 156 154 165 174 176
276 284 276 268 266 258 243 207 183 200 192 177 181 194 198 165 168 151 158 209 226 184 158 153 167 160 168 171 162 160 161 161 166 168 169 176 168 170 171 170 174 173 168 166
256 280 281 283 266 274 256 228 213 171 177 186 179 151 154 174 171 192 218 202 203 155 150 154 157 163 161 161 159 160 163 168 164 158 169 172 174 175 182 170 173 181 187 190
268 252 278 281 266 259 299 237 212 182 184 187 192 184 187 187 170 160 217 200 152 148 141 146 151 151 150 151 155 160 161 162 168 174 178 174 168 165 163 181 190 177 173 186
280 291 271 274 289 284 258 260 201 211 185 183 184 165 151 142 7 18 49 104 129 143 136 148 154 151 144 146 154 152 156 162 165 155 140 140 153 163 168 162 159 161 178 197
266 293 293 310 298 250 256 265 126 99 102 84 83 70 108 32 150 159 119 110 124 117 120 141 144 138 131 138 141 146 149 139 135 140 150 156 160 150 133 142 174 190 208 218
297 279 265 252 244 260 256 153 160 154 120 94 36 23 39 42 84 98 86 98 102 114 119 117 117 119 119 120 120 122 129 140 145 142 143 137 135 147 165 181 196 209 213 221
303 310 327 333 330 330 140 144 125 154 116 110 102 11 76 78 88 99 106 106 98 95 99 100 104 105 109 112 116 118 117 110 124 121 121 137 150 169 187 196 207 222 229 233